This demonstration page uses our WeatherBlox Daily Observations layout. Learn more.

36.17497, -115.13722

Hourly Observations for July 10, 2016

Temp ( °F °C ) Dew Point ( °F °C ) Humidity (%) Winds ( mph kmh ) Pressure ( in mb ) Visibility ( mi km ) Precip ( " mm )
12:53 am 00:53 Clear 88 31.1 35 1.7 15 15 S 22 35 29.65 1004 10 16.09344 0 0
1:53 am 01:53 Clear 86 30 36 2.2 17 17 S 14 22 29.68 1005 10 16.09344 0 0
2:53 am 02:53 Clear 85 29.4 36 2.2 17 17 S 18 30 29.65 1004 10 16.09344 0 0
3:53 am 03:53 Clear 83 28.3 38 3.3 20 20 SW 23 37 29.62 1003 10 16.09344 0 0
4:53 am 04:53 Clear 82 27.8 38 3.3 21 21 SSW 23 37 29.62 1003 10 16.09344 0 0
5:53 am 05:53 Sunny 82 27.8 40 4.4 22 22 S 18 30 29.65 1004 10 16.09344 0 0
6:53 am 06:53 Sunny 83 28.3 40 4.4 22 22 WSW 18 30 29.65 1004 10 16.09344 0 0
7:53 am 07:53 Sunny 86 30 40 4.4 20 20 W 9 15 29.65 1004 10 16.09344 0 0
8:53 am 08:53 Sunny 87 30.6 39 3.9 18 18 undefined N/A 29.68 1005 10 16.09344 0 0
9:53 am 09:53 Sunny 90 32.2 40 4.4 17 17 Calm 29.62 1003 10 16.09344 0 0
10:53 am 10:53 Sunny 94 34.4 39 3.9 15 15 SSW 20 31 29.62 1003 10 16.09344 0 0
11:53 am 11:53 Sunny 96 35.6 37 2.8 13 13 SW 17 28 29.59 1002 10 16.09344 0 0
12:53 pm 12:53 Sunny 98 36.7 37 2.8 12 12 SW 21 33 29.56 1001 10 16.09344 0 0
1:53 pm 13:53 Sunny 100 37.8 39 3.9 12 12 WSW 17 28 29.53 1000 10 16.09344 0 0
2:53 pm 14:53 Sunny 101 38.3 36 2.2 10 10 W 22 35 29.5 999 10 16.09344 0 0
3:02 pm 15:02 Sunny 100 38 36 2 10 10 WSW 20 31 29.53 1000 10 16.09344 0 0
3:53 pm 15:53 Sunny 101 38.3 34 1.1 10 10 SW 20 31 29.47 998 10 16.09344 0 0
4:53 pm 16:53 Sunny 101 38.3 33 0.6 9 9 SW 16 26 29.47 998 10 16.09344 0 0
5:53 pm 17:53 Sunny 100 37.8 28 -2.2 8 8 SW 21 33 29.5 999 10 16.09344 0 0
6:53 pm 18:53 Sunny 99 37.2 26 -3.3 7 7 WSW 17 28 29.5 999 10 16.09344 0 0
7:53 pm 19:53 Sunny 97 36.1 28 -2.2 9 9 SW 13 20 29.5 999 10 16.09344 0 0
8:53 pm 20:53 Clear 93 33.9 24 -4.4 8 8 SW 16 26 29.5 999 10 16.09344 0 0
9:53 pm 21:53 Clear 91 32.8 23 -5 8 8 SSW 12 19 29.53 1000 10 16.09344 0 0
10:53 pm 22:53 Clear 89 31.7 23 -5 9 9 SSW 12 19 29.53 1000 10 16.09344 0 0
11:53 pm 23:53 Clear 84 28.9 27 -2.8 12 12 NW 3 6 29.56 1001 10 16.09344 0 0

Powered by AerisWeather